Find DSP F12

NORAD ID: 15453 Int'l Des: 1984-129 Owner: AFSD Country: US operational
HEOCIRCULAR

現在のビュー

3D地球を読み込み中...

About DSP F12

DSP F12 (NORAD 15453) is a satellite launched Dec 22, 1984 by AFSD of US. It operates in HEO, CIRCULAR orbit with a mass of 1680.00 kg.

次回通過

Passes for default location (London). Set your location on the main map for personalized predictions.

高度履歴

Loading altitude history...

軌道要素

1 15453U 84129A 26194.96236169 .00000023 00000-0 00000+0 0 9990
2 15453 11.4499 320.7451 0002535 281.4354 263.1648 0.98855009 26318
Epoch: Jul 13, 2026 • Age: 11 hours

現在のステータス

高度 36183.0 km
遠地点 / 近地点 N/A
速度 3.06 km/s
衛星直下点 -3.75°S, 134.81°W
打ち上げ日 Dec 22, 1984
運用期間 41.5 years
タイプ military

技術仕様

分類 Payload
質量 1680.00 kg
乾燥質量 1600.00 kg
総質量 1680.00 kg
長さ 7.10 m
直径 3.10 m
スパン 8.60 m
形状 Cyl + 4 Pan
製造者 TRW
バスタイプ DSP P2U
フェーズステータス Unknown Transfer Status
所有者/国 AFSD/US

Most Searched